Weather in Turtas

Russia / Tyumen Oblast     58°56′26″N   69°08′40″E
temp.,
°C
wind,
m/s
gust,
m/s
humid.,
%
clouds,
%
prec.,
mm/h
press.,
hPa
HPBL,
m
25 january, mon
mon2523:00−30se3794100 0.0 1039250
02:00−28se4898100 0.2 1036263
05:00−28se3797100 0.5 1035280
08:00−27se3796100 0.3 1034311
11:00−26se2595100 0.4 1034309
14:00−24se3594100 0.0 1034343
17:00−26se2697100 0.1 1034228
20:00−25sse3794100 0.0 1032318
26 january, tue
tue2623:00−24sse4897100 0.3 1031314
02:00−23sse4998100 0.9 1028286
05:00−22sse3897100 1.3 1026287
08:00−20sse3698100 0.3 1025239
11:00−16sse3695100 0.8 1023202
14:00−9s3695100 0.8 1021210
17:00−2ssw3998100 1.4 1020328
20:000wsw51197100 0.5 1018533
27 january, wed
wed2723:00−1wsw51297100 1.6 1017665
02:00−3w51193100 0.4 1018609
05:00−4wsw51094100 0.6 1018444
08:00−6w499598 0.1 1020434
11:00−5w489597 0.1 1021420
14:00−5w3694100 0.1 1023425
17:00−6w3695100 0.1 1024391
20:00−6wsw2696100 0.1 1025334
28 january, thu
thu2823:00−7sw3896100 0.3 1023282
02:00−5sw3994100 0.1 1021614
05:00−6sw51093100 0.2 1019519
08:00−6sw41293100 0.1 1016717
11:00−3wsw51194100 0.8 1014774
14:00−2wsw51095100 1.3 1013617
17:00−3wsw41096100 2.3 1013661
20:00−3w41095100 0.9 1015669
29 january, fri
fri2923:00−4w4109698 1.1 1017489
02:00−14nnw369699 0.2 1020179
05:00−20nnw269897 0.3 1022184
08:00−24n269673 0.0 1026221
11:00−25n359357 0.0 1029269
14:00−24nne249219 0.0 1032324
17:00−28ne269532 0.0 1035172
20:00−30ene379481 0.0 1037243